Gilze-Rijen, Netherlands

9:07 AM CEST on September 20, 2017 (GMT +0200)
Gilze-Rijen Air Base

Weather History for EHGR - December, 2013

Change the Weather History Date:

Tuesday, December 10, 2013

  Actual Average Record
Temperature  
Mean Temperature 38 °F -  
Max Temperature 48 °F 41 °F 55 °F (1997)
Min Temperature 28 °F 32 °F 17 °F (2002)
Degree Days  
Heating Degree Days 27    
Moisture  
Dew Point 33 °F    
Average Humidity 92    
Maximum Humidity 100    
Minimum Humidity 62    
Precipitation  
Precipitation 0.00 in - - ()
Sea Level Pressure  
Sea Level Pressure 30.52 in    
Wind  
Wind Speed 4 mph ()    
Max Wind Speed 8 mph    
Max Gust Speed 23 mph    
Visibility 4.6 miles    
Events      
Averages and records for this station are not official NWS values.
T = Trace of Precipitation, MM = Missing Value Source: Averaged Metar Reports

Daily Weather History Graph

Daily Weather History Graph

Search for Another Location

Airport or City:

Trip Planner

Search our weather history database for the weather conditions in past years. The results will help you decide how hot, cold, wet, or windy it might be!

Date:

Astronomy

Dec. 10, 2013 Rise Set
Actual Time 8:35 AM CET 4:30 PM CET
Civil Twilight 7:55 AM CET 5:10 PM CET
Nautical Twilight 7:12 AM CET 5:53 PM CET
Astronomical Twilight 6:31 AM CET 6:34 PM CET
Moon 1:03 PM CET (12/10) 12:53 AM CET (12/10)
Length of Visible Light 9h 15m
Length of Day
7h 55m
First Quarter, 59% of the Moon is Illuminated
Dec 10
First Quarter
Dec 17
Full
Dec 25
Last Quarter
Jan 1
New
Jan 8
First Quarter

Hourly Weather History & Observations

Time (CET) Temp. Windchill Dew Point Humidity Pressure Visibility Wind Dir Wind Speed Gust Speed Precip Events Conditions
12:25 AM 39.2 °F 35.9 °F 37.4 °F 93% 30.51 in 5.0 mi SSW 4.6 mph - N/A   Partly Cloudy
12:32 AM 39.2 °F 35.0 °F 37.4 °F 93% 30.51 in 4.3 mi SSW 5.8 mph - N/A   Mist
12:55 AM 37.4 °F 32.8 °F 35.6 °F 93% 30.51 in 4.3 mi South 5.8 mph - N/A   Mist
1:25 AM 37.4 °F 33.8 °F 37.4 °F 100% 30.51 in 4.3 mi South 4.6 mph - N/A   Mist
1:55 AM 35.6 °F 31.7 °F 35.6 °F 100% 30.51 in 3.7 mi South 4.6 mph - N/A   Partly Cloudy
2:25 AM 37.4 °F 34.9 °F 35.6 °F 93% 30.51 in 3.7 mi South 3.5 mph - N/A   Mist
2:55 AM 33.8 °F 29.6 °F 33.8 °F 100% 30.51 in 3.7 mi South 4.6 mph - N/A   Mist
3:25 AM 35.6 °F 31.7 °F 33.8 °F 93% 30.51 in 3.7 mi South 4.6 mph - N/A   Partly Cloudy
3:26 AM 35.6 °F 31.7 °F 33.8 °F 93% 30.51 in - South 4.6 mph - N/A   Mist
3:34 AM 35.6 °F 31.7 °F 33.8 °F 93% 30.51 in 3.1 mi South 4.6 mph - N/A   Scattered Clouds
3:39 AM 35.6 °F 31.7 °F 35.6 °F 100% 30.51 in - South 4.6 mph - N/A   Scattered Clouds
3:55 AM 33.8 °F 29.6 °F 33.8 °F 100% 30.51 in - South 4.6 mph - N/A   Mist
4:00 AM 32.0 °F 27.5 °F 32.0 °F 100% 30.51 in 3.1 mi South 4.6 mph - N/A   Mist
4:13 AM 33.8 °F 29.6 °F 33.8 °F 100% 30.51 in 3.7 mi South 4.6 mph - N/A   Partly Cloudy
4:25 AM 33.8 °F 29.6 °F 33.8 °F 100% 30.51 in - South 4.6 mph - N/A   Mist
4:27 AM 33.8 °F 29.6 °F 33.8 °F 100% 30.51 in 3.1 mi South 4.6 mph - N/A   Mist
4:43 AM 33.8 °F 30.8 °F 33.8 °F 100% 30.51 in 3.7 mi South 3.5 mph - N/A   Mist
4:55 AM 32.0 °F 28.7 °F 30.2 °F 93% 30.51 in - South 3.5 mph - N/A   Mist
5:01 AM 30.2 °F 26.7 °F 30.2 °F 100% 30.51 in 3.1 mi South 3.5 mph - N/A   Partly Cloudy
5:11 AM 33.8 °F 30.8 °F 32.0 °F 93% 30.51 in 3.7 mi South 3.5 mph - N/A   Mist
5:25 AM 32.0 °F 28.7 °F 32.0 °F 100% 30.51 in 3.1 mi SSE 3.5 mph - N/A   Mist
5:55 AM 32.0 °F 28.7 °F 30.2 °F 93% 30.51 in 3.7 mi SSE 3.5 mph - N/A   Partly Cloudy
6:25 AM 33.8 °F 28.6 °F 32.0 °F 93% 30.51 in 3.7 mi South 5.8 mph - N/A   Partly Cloudy
6:26 AM 33.8 °F 29.6 °F 32.0 °F 93% 30.51 in 5.0 mi South 4.6 mph - N/A   Partly Cloudy
6:33 AM 33.8 °F 29.6 °F 32.0 °F 93% 30.51 in 4.3 mi South 4.6 mph - N/A   Partly Cloudy
6:38 AM 33.8 °F 29.6 °F 32.0 °F 93% 30.51 in 1.5 mi South 4.6 mph - N/A   Partly Cloudy
6:55 AM 33.8 °F 29.6 °F 32.0 °F 93% 30.51 in - South 4.6 mph - N/A   Partly Cloudy
7:04 AM 33.8 °F 29.6 °F 32.0 °F 93% 30.51 in 3.1 mi South 4.6 mph - N/A   Mist
7:14 AM 33.8 °F 30.8 °F 32.0 °F 93% 30.51 in 4.3 mi South 3.5 mph - N/A   Mist
7:18 AM 33.8 °F 29.6 °F 32.0 °F 93% 30.51 in 5.0 mi South 4.6 mph - N/A   Mist
7:25 AM 33.8 °F 29.6 °F 32.0 °F 93% 30.51 in 5.0 mi South 4.6 mph - N/A   Mist
7:36 AM 33.8 °F 29.6 °F 32.0 °F 93% 30.51 in 5.0 mi SSE 4.6 mph - N/A   Partly Cloudy
7:40 AM 33.8 °F 29.6 °F 32.0 °F 93% 30.51 in 4.3 mi SSE 4.6 mph - N/A   Partly Cloudy
7:46 AM 33.8 °F 29.6 °F 32.0 °F 93% 30.51 in 5.0 mi South 4.6 mph - N/A   Partly Cloudy
7:55 AM 33.8 °F 29.6 °F 32.0 °F 93% 30.51 in 5.6 mi South 4.6 mph - N/A   Partly Cloudy
8:06 AM 33.8 °F 30.8 °F 32.0 °F 93% 30.51 in 5.6 mi SSE 3.5 mph - N/A   Mist
8:17 AM 33.8 °F 30.8 °F 32.0 °F 93% 30.51 in 4.3 mi SSE 3.5 mph - N/A   Mist
8:25 AM 33.8 °F 30.8 °F 32.0 °F 93% 30.51 in 3.1 mi SSE 3.5 mph - N/A   Mist
8:35 AM 33.8 °F 30.8 °F 32.0 °F 93% 30.51 in 5.0 mi South 3.5 mph - N/A   Mist
8:46 AM 33.8 °F 30.8 °F 32.0 °F 93% 30.51 in 4.3 mi SSE 3.5 mph - N/A   Partly Cloudy
8:55 AM 33.8 °F 30.8 °F 32.0 °F 93% 30.51 in 4.3 mi South 3.5 mph - N/A   Mist
9:04 AM 32.0 °F 28.7 °F 32.0 °F 100% 30.51 in 5.0 mi South 3.5 mph - N/A   Partly Cloudy
9:18 AM 33.8 °F 29.6 °F 32.0 °F 93% 30.51 in 5.0 mi South 4.6 mph - N/A   Mist
9:25 AM 33.8 °F 29.6 °F 32.0 °F 93% 30.51 in 5.0 mi South 4.6 mph - N/A   Partly Cloudy
9:38 AM 35.6 °F 31.7 °F 33.8 °F 93% 30.54 in 5.6 mi SSE 4.6 mph - N/A   Mist
9:55 AM 35.6 °F 31.7 °F 33.8 °F 93% 30.54 in 5.6 mi SSE 4.6 mph - N/A   Mist
10:05 AM 37.4 °F 34.9 °F 33.8 °F 87% 30.54 in 6.2 mi South 3.5 mph - N/A   Partly Cloudy
10:25 AM 39.2 °F 37.0 °F 35.6 °F 87% 30.54 in 6.2 mi SSE 3.5 mph - N/A   Unknown
10:55 AM 41.0 °F 38.0 °F 37.4 °F 87% 30.54 in 6.2 mi SSE 4.6 mph - N/A   Partly Cloudy
11:25 AM 44.6 °F 40.7 °F 39.2 °F 81% 30.54 in 6.2 mi South 6.9 mph - N/A   Unknown
11:55 AM 44.6 °F 41.4 °F 41.0 °F 87% 30.54 in 6.2 mi South 5.8 mph - N/A   Unknown
12:25 PM 46.4 °F 42.9 °F 41.0 °F 81% 30.54 in 6.2 mi South 6.9 mph - N/A   Unknown
12:55 PM 48.2 °F - 41.0 °F 76% 30.51 in 6.2 mi South 6.9 mph - N/A   Unknown
1:25 PM 48.2 °F - 39.2 °F 71% 30.51 in 6.2 mi South 6.9 mph - N/A   Unknown
1:55 PM 48.2 °F - 37.4 °F 66% 30.51 in 6.2 mi SSW 8.1 mph - N/A   Unknown
2:25 PM 48.2 °F - 37.4 °F 66% 30.51 in 6.2 mi SSW 6.9 mph - N/A   Unknown
2:55 PM 48.2 °F - 35.6 °F 62% 30.51 in 6.2 mi SW 5.8 mph - N/A   Unknown
3:25 PM 48.2 °F - 35.6 °F 62% 30.51 in 6.2 mi South 6.9 mph - N/A   Partly Cloudy
3:55 PM 44.6 °F 41.4 °F 35.6 °F 71% 30.51 in 6.2 mi South 5.8 mph 23.0 mph N/A   Unknown
4:25 PM 46.4 °F 43.5 °F 35.6 °F 66% 30.54 in 6.2 mi SSW 5.8 mph - N/A   Unknown
4:34 PM 42.8 °F 40.1 °F 33.8 °F 70% 30.54 in 6.2 mi SSW 4.6 mph - N/A   Unknown
4:55 PM 41.0 °F 39.0 °F 35.6 °F 81% 30.54 in 6.2 mi South 3.5 mph - N/A   Unknown
5:25 PM 41.0 °F 39.0 °F 33.8 °F 76% 30.51 in 6.2 mi South 3.5 mph - N/A   Unknown
5:41 PM 41.0 °F 39.0 °F 35.6 °F 81% 30.54 in 6.2 mi South 3.5 mph - N/A   Unknown
5:55 PM 39.2 °F 37.0 °F 35.6 °F 87% 30.54 in 6.2 mi SSE 3.5 mph - N/A   Partly Cloudy
6:25 PM 37.4 °F 34.9 °F 33.8 °F 87% 30.51 in 6.2 mi South 3.5 mph - N/A   Partly Cloudy
6:55 PM 37.4 °F 33.8 °F 33.8 °F 87% 30.51 in 6.2 mi South 4.6 mph - N/A   Unknown
7:25 PM 35.6 °F 32.8 °F 33.8 °F 93% 30.51 in 6.2 mi SSE 3.5 mph - N/A   Unknown
7:55 PM 37.4 °F 32.8 °F 35.6 °F 93% 30.54 in 6.2 mi South 5.8 mph - N/A   Unknown
8:25 PM 32.0 °F - 32.0 °F 100% 30.54 in 6.2 mi East 2.3 mph - N/A   Partly Cloudy
8:50 PM 35.6 °F 32.8 °F 35.6 °F 100% 30.54 in 4.3 mi SSE 3.5 mph - N/A   Mist
8:55 PM 33.8 °F - 33.8 °F 100% 30.54 in 4.3 mi South 2.3 mph - N/A   Mist
9:03 PM 32.0 °F - 32.0 °F 100% 30.54 in 3.7 mi South 2.3 mph - N/A   Mist
9:05 PM 33.8 °F - 33.8 °F 100% 30.54 in 4.3 mi South 2.3 mph - N/A   Mist
9:21 PM 33.8 °F - 32.0 °F 93% 30.54 in - South 2.3 mph - N/A   Mist
9:25 PM 32.0 °F 27.5 °F 30.2 °F 93% 30.54 in - South 4.6 mph - N/A   Mist
9:34 PM 33.8 °F 29.6 °F 33.8 °F 100% 30.54 in 3.1 mi South 4.6 mph - N/A   Mist
9:42 PM 32.0 °F - 32.0 °F 100% 30.54 in - SSE 1.2 mph - N/A   Partly Cloudy
9:48 PM 32.0 °F - 32.0 °F 100% 30.54 in 3.1 mi ESE 1.2 mph - N/A   Mostly Cloudy
9:55 PM 32.0 °F - 32.0 °F 100% 30.54 in 4.3 mi East 1.2 mph - N/A   Scattered Clouds
10:04 PM 30.2 °F - 30.2 °F 100% 30.54 in - SSE 2.3 mph - N/A   Mist
10:07 PM 32.0 °F 28.7 °F 30.2 °F 93% 30.54 in - South 3.5 mph - N/A   Mist
10:21 PM 28.4 °F - 28.4 °F 100% 30.54 in - SE 2.3 mph - N/A   Partly Cloudy
10:25 PM 32.0 °F - 32.0 °F 100% 30.54 in - SSE 2.3 mph - N/A   Partly Cloudy
10:31 PM 33.8 °F 30.8 °F 33.8 °F 100% 30.54 in - SSE 3.5 mph - N/A   Partly Cloudy
10:39 PM 33.8 °F 29.6 °F 33.8 °F 100% 30.54 in - South 4.6 mph - N/A   Partly Cloudy
10:55 PM 32.0 °F 28.7 °F 32.0 °F 100% 30.51 in - SSE 3.5 mph - N/A   Mist
11:02 PM 32.0 °F 28.7 °F 32.0 °F 100% 30.51 in - SSE 3.5 mph - N/A   Mist
11:09 PM 30.2 °F - 30.2 °F 100% 30.51 in - SSE 2.3 mph - N/A   Mist
11:25 PM 32.0 °F - 30.2 °F 93% 30.51 in 1.6 mi SSE 2.3 mph - N/A   Mist
11:46 PM 30.2 °F - 30.2 °F 100% 30.54 in 0.9 mi SSE 2.3 mph - N/A   Mist
11:55 PM 30.2 °F - 30.2 °F 100% 30.54 in 0.9 mi South 2.3 mph - N/A   Mist
11:59 PM 28.4 °F - 26.6 °F 93% 30.54 in 1.2 mi South 2.3 mph - N/A   Partly Cloudy